{"data":{"norad_id":63971,"intl_designator":"2025-099V","name":"STARLINK-34138","alt_names":[],"object_type":"PAYLOAD","status":"ACTIVE","operator":null,"country":"US","launch_date":"2025-05-13","launch_site_code":"AFETR","launch_vehicle":null,"mission":null,"orbit_class":"UNKNOWN","rcs_meters":null,"size_class":null,"mass_kg":null,"dimensions":null,"purposes":["comms"],"wikipedia_slug":null,"has_3d_model":false,"image_url":null,"decayed_at":null,"tle_current":{"epoch":"2026-05-25T04:08:07.271232Z","epoch_age_seconds":50390,"freshness":"FRESH","line1":"1 63971U 25099V   26145.17230638  .00012912  00000+0  47774-3 0  9995","line2":"2 63971  42.9984 100.7862 0001126 275.4217  84.6506 15.27590924 59070","mean_motion":15.27590924,"eccentricity":0.0001126,"inclination_deg":42.9984,"raan_deg":100.7862,"arg_perigee_deg":275.4217,"mean_anomaly_deg":84.6506,"bstar":0.00047774,"rev_number":5907,"period_min":94.266074599956,"perigee_km":482.24381997745,"apogee_km":483.78895171994,"semimajor_km":6861.1533858487,"source":"CELESTRAK","updated_at":"2026-05-25T13:38:20.215044Z"}}}